QPF
0.00 0.00 0.00 0.00 0.00 0.00 0.00 0.00 0.00 0.00 0.00 0.00 0.00 0.00 0.00 0.00 0.00 0.00 0.00 0.00 0.00 0.00 0.00 0.00 0.00 0.00 0.00 0.01 0.02 0.04 0.04 0.03 0.02 0.02 0.03 0.03 0.03 0.03 0.04 0.06 0.07 0.08 0.09
0.00 0.00 0.00 0.00 0.00 0.00 0.00 0.00 0.00 0.00 0.00 0.00 0.00 0.00 0.00 0.00 0.00 0.00 0.00 0.00 0.00 0.00 0.00 0.00 0.00 0.00 0.00 0.00 0.00 0.01 0.01 0.01 0.01 0.00 0.01 0.00 0.01 0.01 0.02 0.03 0.05 0.07 0.09
0.00 0.00 0.00 0.00 0.00 0.00 0.00 0.00 0.00 0.00 0.00 0.00 0.00 0.00 0.00 0.00 0.00 0.00 0.00 0.00 0.00 0.00 0.00 0.00 0.00 0.00 0.00 0.00 0.00 0.00 0.00 0.00 0.00 0.00 0.00 0.00 0.00 0.00 0.00 0.00 0.01 0.03 0.05
0.00 0.00 0.00 0.00 0.00 0.00 0.00 0.00 0.00 0.00 0.00 0.00 0.00 0.00 0.00 0.00 0.00 0.00 0.00 0.00 0.00 0.00 0.00 0.00 0.00 0.00 0.00 0.00 0.00 0.00 0.00 0.00 0.00 0.00 0.00 0.00 0.00 0.00 0.00 0.00 0.00 0.00 0.01
0.00 0.00 0.00 0.00 0.00 0.00 0.00 0.00 0.00 0.00 0.00 0.00 0.00 0.00 0.00 0.00 0.00 0.00 0.00 0.00 0.00 0.00 0.00 0.00 0.00 0.00 0.00 0.00 0.00 0.00 0.00 0.00 0.00 0.00 0.00 0.00 0.00 0.00 0.00 0.00 0.00 0.00 0.00
0.00 0.00 0.00 0.00 0.00 0.00 0.00 0.00 0.00 0.00 0.00 0.00 0.00 0.00 0.00 0.00 0.00 0.00 0.00 0.00 0.00 0.00 0.00 0.00 0.00 0.00 0.00 0.00 0.00 0.00 0.00 0.00 0.00 0.00 0.00 0.00 0.00 0.00 0.00 0.00 0.00 0.00 0.00
0.00 0.00 0.00 0.00 0.00 0.00 0.00 0.00 0.00 0.00 0.00 0.00 0.00 0.00 0.00 0.00 0.00 0.00 0.00 0.00 0.00 0.00 0.00 0.00 0.00 0.00 0.00 0.00 0.00 0.00 0.00 0.00 0.00 0.00 0.00 0.00 0.00 0.00 0.00 0.00 0.00 0.00 0.00
0.00 0.00 0.00 0.00 0.00 0.00 0.00 0.00 0.00 0.00 0.00 0.00 0.00 0.00 0.00 0.00 0.00 0.00 0.00 0.00 0.00 0.00 0.00 0.00 0.00 0.00 0.00 0.00 0.00 0.00 0.00 0.00 0.00 0.00 0.00 0.00 0.00 0.00 0.00 0.00 0.00 0.00 0.00
0.00 0.00 0.00 0.00 0.00 0.00 0.00 0.00 0.00 0.00 0.00 0.00 0.00 0.00 0.00 0.00 0.00 0.00 0.00 0.00 0.00 0.00 0.00 0.00 0.00 0.00 0.00 0.00 0.00 0.00 0.00 0.00 0.00 0.00 0.00 0.00 0.00 0.00 0.00 0.00 0.00 0.00 0.00
0.00 0.00 0.00 0.00 0.00 0.00 0.00 0.00 0.00 0.00 0.00 0.00 0.00 0.00 0.00 0.00 0.00 0.00 0.00 0.00 0.00 0.00 0.00 0.00 0.00 0.00 0.00 0.00 0.00 0.00 0.00 0.00 0.00 0.00 0.00 0.00 0.00 0.00 0.00 0.00 0.00 0.00 0.00
0.00 0.00 0.00 0.00 0.00 0.00 0.00 0.00 0.00 0.00 0.00 0.00 0.00 0.00 0.00 0.00 0.00 0.00 0.00 0.00 0.00 0.00 0.00 0.00 0.00 0.00 0.00 0.00 0.00 0.00 0.00 0.00 0.00 0.00 0.00 0.00 0.00 0.00 0.00 0.01 0.01 0.00 0.00
0.00 0.00 0.00 0.00 0.00 0.00 0.00 0.00 0.00 0.00 0.00 0.00 0.00 0.00 0.00 0.00 0.00 0.00 0.00 0.00 0.00 0.00 0.00 0.00 0.00 0.00 0.00 0.00 0.00 0.00 0.00 0.00 0.00 0.00 0.00 0.00 0.00 0.01 0.01 0.01 0.01 0.01 0.00
0.00 0.00 0.00 0.00 0.00 0.00 0.00 0.00 0.00 0.00 0.00 0.00 0.00 0.00 0.00 0.00 0.00 0.00 0.00 0.00 0.00 0.00 0.00 0.00 0.00 0.00 0.00 0.00 0.00 0.00 0.00 0.00 0.00 0.00 0.00 0.00 0.01 0.01 0.01 0.01 0.01 0.01 0.01
0.00 0.00 0.00 0.00 0.00 0.00 0.00 0.00 0.00 0.00 0.00 0.00 0.00 0.00 0.00 0.00 0.00 0.00 0.00 0.00 0.00 0.00 0.00 0.00 0.00 0.00 0.00 0.00 0.00 0.00 0.00 0.00 0.00 0.00 0.00 0.00 0.01 0.01 0.01 0.01 0.01 0.01 0.02
0.00 0.00 0.00 0.00 0.00 0.00 0.00 0.00 0.00 0.00 0.00 0.00 0.00 0.00 0.00 0.00 0.00 0.00 0.00 0.00 0.00 0.00 0.00 0.00 0.00 0.00 0.00 0.00 0.00 0.00 0.00 0.00 0.00 0.00 0.01 0.01 0.01 0.00 0.01 0.01 0.01 0.02 0.03
0.00 0.00 0.00 0.00 0.00 0.00 0.00 0.00 0.00 0.00 0.00 0.00 0.00 0.00 0.00 0.00 0.00 0.00 0.00 0.00 0.00 0.00 0.00 0.00 0.00 0.00 0.00 0.00 0.00 0.00 0.00 0.00 0.01 0.01 0.01 0.01 0.00 0.00 0.01 0.02 0.03 0.04 0.05
0.00 0.00 0.00 0.00 0.00 0.00 0.00 0.00 0.00 0.00 0.00 0.00 0.00 0.00 0.00 0.00 0.00 0.00 0.00 0.00 0.00 0.00 0.00 0.00 0.00 0.00 0.00 0.00 0.00 0.00 0.00 0.01 0.01 0.01 0.00 0.00 0.00 0.01 0.02 0.03 0.04 0.05 0.05
0.00 0.00 0.00 0.00 0.00 0.00 0.00 0.00 0.00 0.00 0.00 0.00 0.00 0.00 0.00 0.00 0.00 0.00 0.00 0.00 0.00 0.00 0.00 0.00 0.00 0.00 0.00 0.00 0.00 0.00 0.00 0.00 0.00 0.00 0.00 0.00 0.01 0.02 0.03 0.03 0.03 0.04 0.06
0.00 0.00 0.00 0.00 0.00 0.00 0.00 0.00 0.00 0.00 0.00 0.00 0.00 0.00 0.00 0.00 0.00 0.00 0.00 0.00 0.00 0.00 0.00 0.00 0.00 0.00 0.00 0.00 0.00 0.00 0.00 0.00 0.00 0.00 0.00 0.00 0.01 0.02 0.03 0.03 0.04 0.05 0.04
0.00 0.00 0.00 0.00 0.00 0.00 0.00 0.00 0.00 0.00 0.00 0.00 0.00 0.00 0.00 0.00 0.00 0.00 0.00 0.00 0.00 0.00 0.00 0.01 0.01 0.01 0.01 0.00 0.00 0.00 0.00 0.00 0.00 0.00 0.00 0.00 0.01 0.01 0.01 0.01 0.01 0.01 0.01
0.00 0.00 0.00 0.00 0.00 0.00 0.00 0.00 0.00 0.00 0.00 0.00 0.00 0.00 0.00 0.00 0.00 0.00 0.00 0.00 0.00 0.01 0.02 0.04 0.03 0.02 0.01 0.00 0.00 0.00 0.00 0.00 0.00 0.00 0.00 0.00 0.00 0.00 0.00 0.00 0.00 0.00 0.01
0.00 0.00 0.00 0.00 0.00 0.00 0.00 0.00 0.00 0.00 0.00 0.00 0.00 0.00 0.00 0.00 0.00 0.00 0.00 0.01 0.02 0.05 0.06 0.06 0.04 0.01 0.00 0.00 0.00 0.01 0.02 0.01 0.01 0.00 0.00 0.00 0.00 0.00 0.00 0.00 0.00 0.01 0.02
0.00 0.00 0.00 0.00 0.00 0.00 0.00 0.00 0.00 0.00 0.00 0.00 0.00 0.00 0.00 0.00 0.00 0.00 0.00 0.02 0.04 0.03 0.03 0.02 0.01 0.00 0.00 0.01 0.02 0.02 0.01 0.02 0.01 0.00 0.01 0.01 0.00 0.00 0.00 0.00 0.00 0.00 0.01
0.00 0.00 0.00 0.00 0.00 0.00 0.00 0.00 0.00 0.00 0.00 0.00 0.00 0.00 0.00 0.00 0.00 0.01 0.04 0.05 0.02 0.00 0.00 0.00 0.00 0.01 0.01 0.01 0.01 0.01 0.02 0.02 0.01 0.00 0.00 0.00 0.00 0.00 0.00 0.00 0.00 0.00 0.01
0.00 0.00 0.00 0.00 0.00 0.00 0.00 0.00 0.00 0.00 0.00 0.00 0.00 0.00 0.00 0.00 0.01 0.04 0.03 0.01 0.00 0.00 0.00 0.00 0.01 0.00 0.00 0.00 0.00 0.02 0.04 0.03 0.02 0.00 0.00 0.00 0.00 0.00 0.00 0.00 0.00 0.00 0.00
0.00 0.00 0.00 0.00 0.00 0.00 0.00 0.00 0.00 0.00 0.00 0.00 0.00 0.00 0.00 0.01 0.03 0.03 0.01 0.00 0.00 0.00 0.01 0.00 0.00 0.00 0.00 0.00 0.00 0.01 0.05 0.09 0.05 0.02 0.00 0.01 0.02 0.02 0.03 0.00 0.00 0.00 0.00
MSLP
1015.29 1015.47 1015.61 1015.73 1015.83 1015.92 1016.01 1016.08 1016.14 1016.15 1016.12 1016.05 1015.93 1015.79 1015.62 1015.45 1015.28 1015.11 1014.93 1014.73 1014.50 1014.24 1013.95 1013.63 1013.31 1012.98 1012.68 1012.42 1012.19 1012.01 1011.85 1011.73 1011.62 1011.52 1011.43 1011.34 1011.26 1011.18 1011.10 1011.02 1010.94 1010.85 1010.78
1015.31 1015.51 1015.68 1015.84 1016.00 1016.15 1016.28 1016.39 1016.46 1016.47 1016.42 1016.31 1016.15 1015.95 1015.75 1015.54 1015.36 1015.20 1015.06 1014.93 1014.78 1014.62 1014.42 1014.17 1013.90 1013.60 1013.28 1012.97 1012.67 1012.39 1012.15 1011.93 1011.74 1011.58 1011.44 1011.32 1011.20 1011.08 1010.96 1010.83 1010.69 1010.55 1010.42
1015.36 1015.58 1015.79 1016.00 1016.21 1016.42 1016.60 1016.75 1016.83 1016.84 1016.77 1016.62 1016.41 1016.16 1015.91 1015.67 1015.48 1015.33 1015.23 1015.16 1015.10 1015.02 1014.91 1014.75 1014.53 1014.25 1013.93 1013.58 1013.21 1012.85 1012.50 1012.19 1011.92 1011.70 1011.50 1011.34 1011.19 1011.05 1010.90 1010.74 1010.57 1010.39 1010.22
1015.47 1015.71 1015.96 1016.22 1016.49 1016.74 1016.97 1017.15 1017.25 1017.26 1017.17 1016.98 1016.73 1016.44 1016.15 1015.88 1015.67 1015.52 1015.44 1015.41 1015.40 1015.40 1015.36 1015.26 1015.09 1014.84 1014.51 1014.13 1013.70 1013.27 1012.84 1012.45 1012.10 1011.81 1011.57 1011.38 1011.21 1011.05 1010.89 1010.72 1010.53 1010.32 1010.11
1015.67 1015.93 1016.21 1016.51 1016.82 1017.12 1017.38 1017.58 1017.70 1017.71 1017.61 1017.41 1017.14 1016.82 1016.49 1016.19 1015.95 1015.78 1015.69 1015.67 1015.68 1015.70 1015.69 1015.63 1015.49 1015.26 1014.93 1014.53 1014.07 1013.58 1013.09 1012.63 1012.23 1011.89 1011.61 1011.39 1011.20 1011.04 1010.87 1010.70 1010.50 1010.27 1010.04
1015.94 1016.22 1016.52 1016.85 1017.19 1017.52 1017.81 1018.03 1018.16 1018.18 1018.09 1017.89 1017.61 1017.29 1016.94 1016.62 1016.34 1016.14 1016.01 1015.94 1015.92 1015.91 1015.89 1015.83 1015.69 1015.45 1015.13 1014.72 1014.24 1013.73 1013.21 1012.72 1012.27 1011.89 1011.58 1011.34 1011.14 1010.96 1010.79 1010.61 1010.40 1010.16 1009.91
1016.27 1016.56 1016.88 1017.22 1017.57 1017.91 1018.21 1018.45 1018.60 1018.64 1018.57 1018.40 1018.14 1017.83 1017.49 1017.15 1016.84 1016.59 1016.38 1016.23 1016.13 1016.05 1015.96 1015.85 1015.68 1015.43 1015.10 1014.69 1014.22 1013.71 1013.19 1012.68 1012.22 1011.81 1011.48 1011.21 1010.98 1010.78 1010.60 1010.40 1010.17 1009.92 1009.65
1016.62 1016.92 1017.24 1017.58 1017.92 1018.26 1018.56 1018.81 1018.97 1019.04 1019.02 1018.89 1018.69 1018.42 1018.11 1017.77 1017.43 1017.11 1016.82 1016.56 1016.33 1016.13 1015.94 1015.74 1015.51 1015.23 1014.89 1014.50 1014.04 1013.55 1013.04 1012.54 1012.07 1011.65 1011.29 1010.98 1010.72 1010.49 1010.27 1010.04 1009.79 1009.51 1009.22
1016.97 1017.27 1017.58 1017.91 1018.24 1018.56 1018.85 1019.09 1019.27 1019.37 1019.39 1019.34 1019.20 1019.00 1018.73 1018.42 1018.06 1017.68 1017.29 1016.91 1016.54 1016.20 1015.87 1015.56 1015.25 1014.93 1014.58 1014.19 1013.76 1013.30 1012.82 1012.33 1011.86 1011.42 1011.02 1010.67 1010.36 1010.07 1009.80 1009.52 1009.23 1008.93 1008.61
1017.29 1017.59 1017.89 1018.20 1018.50 1018.79 1019.05 1019.28 1019.46 1019.60 1019.67 1019.68 1019.63 1019.51 1019.30 1019.02 1018.66 1018.24 1017.77 1017.27 1016.77 1016.28 1015.81 1015.38 1014.98 1014.60 1014.23 1013.84 1013.44 1013.01 1012.55 1012.08 1011.60 1011.14 1010.70 1010.29 1009.91 1009.55 1009.21 1008.87 1008.53 1008.19 1007.85
1017.58 1017.88 1018.17 1018.45 1018.72 1018.97 1019.19 1019.40 1019.57 1019.72 1019.84 1019.92 1019.94 1019.89 1019.76 1019.52 1019.18 1018.73 1018.20 1017.61 1016.98 1016.36 1015.78 1015.23 1014.75 1014.31 1013.90 1013.51 1013.12 1012.70 1012.27 1011.80 1011.31 1010.82 1010.33 1009.86 1009.40 1008.96 1008.55 1008.14 1007.75 1007.36 1006.99
1017.84 1018.15 1018.43 1018.68 1018.91 1019.11 1019.29 1019.45 1019.60 1019.75 1019.89 1020.01 1020.09 1020.11 1020.04 1019.86 1019.54 1019.09 1018.52 1017.87 1017.16 1016.45 1015.76 1015.12 1014.56 1014.06 1013.62 1013.21 1012.82 1012.41 1011.97 1011.50 1011.00 1010.47 1009.93 1009.38 1008.85 1008.34 1007.84 1007.37 1006.92 1006.50 1006.10
1018.06 1018.39 1018.66 1018.89 1019.08 1019.23 1019.35 1019.46 1019.58 1019.70 1019.83 1019.97 1020.09 1020.15 1020.13 1019.99 1019.71 1019.27 1018.70 1018.01 1017.26 1016.48 1015.72 1015.02 1014.39 1013.84 1013.37 1012.93 1012.52 1012.10 1011.65 1011.16 1010.63 1010.06 1009.47 1008.87 1008.28 1007.69 1007.13 1006.60 1006.10 1005.63 1005.20
1018.26 1018.60 1018.87 1019.08 1019.23 1019.33 1019.40 1019.45 1019.51 1019.59 1019.69 1019.81 1019.93 1020.01 1020.02 1019.91 1019.65 1019.24 1018.68 1017.99 1017.22 1016.42 1015.62 1014.88 1014.21 1013.61 1013.10 1012.63 1012.19 1011.74 1011.27 1010.75 1010.19 1009.59 1008.96 1008.32 1007.67 1007.04 1006.43 1005.84 1005.30 1004.79 1004.32
1018.44 1018.78 1019.04 1019.23 1019.35 1019.40 1019.42 1019.41 1019.41 1019.43 1019.49 1019.57 1019.66 1019.73 1019.73 1019.63 1019.39 1019.00 1018.46 1017.79 1017.03 1016.23 1015.42 1014.65 1013.95 1013.32 1012.76 1012.26 1011.77 1011.29 1010.79 1010.25 1009.66 1009.03 1008.37 1007.70 1007.02 1006.35 1005.71 1005.09 1004.51 1003.96 1003.46
1018.58 1018.92 1019.18 1019.35 1019.43 1019.45 1019.42 1019.36 1019.29 1019.25 1019.24 1019.27 1019.31 1019.34 1019.31 1019.20 1018.96 1018.58 1018.06 1017.41 1016.68 1015.89 1015.09 1014.31 1013.59 1012.93 1012.33 1011.78 1011.26 1010.73 1010.19 1009.62 1009.01 1008.36 1007.69 1007.00 1006.30 1005.62 1004.95 1004.31 1003.70 1003.12 1002.58
1018.69 1019.02 1019.26 1019.41 1019.47 1019.46 1019.39 1019.28 1019.16 1019.06 1018.99 1018.95 1018.92 1018.89 1018.82 1018.67 1018.41 1018.03 1017.52 1016.89 1016.17 1015.40 1014.61 1013.84 1013.10 1012.42 1011.78 1011.19 1010.62 1010.05 1009.48 1008.88 1008.24 1007.58 1006.90 1006.20 1005.50 1004.81 1004.12 1003.46 1002.83 1002.22 1001.65
1018.77 1019.07 1019.29 1019.42 1019.46 1019.43 1019.32 1019.18 1019.02 1018.87 1018.74 1018.63 1018.53 1018.43 1018.30 1018.10 1017.81 1017.40 1016.89 1016.27 1015.57 1014.82 1014.04 1013.27 1012.52 1011.82 1011.15 1010.51 1009.90 1009.29 1008.68 1008.05 1007.39 1006.72 1006.03 1005.32 1004.61 1003.90 1003.21 1002.53 1001.87 1001.24 1000.65
1018.84 1019.11 1019.30 1019.40 1019.42 1019.36 1019.23 1019.07 1018.88 1018.68 1018.50 1018.33 1018.17 1018.00 1017.79 1017.53 1017.19 1016.76 1016.22 1015.60 1014.91 1014.17 1013.40 1012.63 1011.88 1011.16 1010.47 1009.80 1009.14 1008.49 1007.84 1007.17 1006.49 1005.80 1005.09 1004.37 1003.64 1002.92 1002.20 1001.49 1000.81 1000.16 999.54
1018.91 1019.14 1019.29 1019.36 1019.35 1019.26 1019.12 1018.93 1018.72 1018.49 1018.27 1018.04 1017.82 1017.58 1017.31 1016.98 1016.59 1016.11 1015.55 1014.92 1014.23 1013.50 1012.74 1011.98 1011.23 1010.50 1009.78 1009.08 1008.40 1007.71 1007.02 1006.32 1005.60 1004.87 1004.13 1003.38 1002.62 1001.86 1001.11 1000.37 999.66 998.98 998.35
1019.01 1019.19 1019.29 1019.31 1019.27 1019.16 1018.99 1018.78 1018.54 1018.29 1018.02 1017.75 1017.47 1017.17 1016.83 1016.45 1016.00 1015.48 1014.90 1014.25 1013.56 1012.83 1012.09 1011.34 1010.60 1009.86 1009.14 1008.42 1007.71 1006.99 1006.26 1005.51 1004.76 1003.98 1003.19 1002.39 1001.59 1000.78 999.98 999.20 998.45 997.74 997.08
1019.14 1019.26 1019.31 1019.29 1019.20 1019.05 1018.85 1018.61 1018.33 1018.04 1017.74 1017.43 1017.10 1016.74 1016.34 1015.90 1015.41 1014.86 1014.25 1013.59 1012.90 1012.19 1011.46 1010.73 1010.01 1009.28 1008.56 1007.84 1007.10 1006.35 1005.58 1004.80 1003.98 1003.15 1002.31 1001.45 1000.58 999.71 998.85 998.01 997.21 996.47 995.78
1019.30 1019.37 1019.36 1019.28 1019.14 1018.93 1018.68 1018.40 1018.08 1017.75 1017.41 1017.05 1016.67 1016.26 1015.82 1015.34 1014.80 1014.22 1013.60 1012.94 1012.26 1011.56 1010.86 1010.16 1009.46 1008.76 1008.05 1007.32 1006.57 1005.80 1004.99 1004.16 1003.29 1002.40 1001.49 1000.56 999.62 998.69 997.76 996.86 996.00 995.20 994.47
1019.48 1019.49 1019.42 1019.28 1019.07 1018.80 1018.49 1018.15 1017.78 1017.40 1017.01 1016.60 1016.18 1015.73 1015.25 1014.73 1014.17 1013.57 1012.94 1012.29 1011.63 1010.95 1010.28 1009.62 1008.94 1008.27 1007.57 1006.85 1006.09 1005.30 1004.46 1003.59 1002.67 1001.72 1000.74 999.75 998.74 997.73 996.74 995.77 994.85 993.98 993.19
1019.64 1019.60 1019.47 1019.26 1018.98 1018.64 1018.26 1017.85 1017.42 1016.98 1016.54 1016.10 1015.64 1015.16 1014.65 1014.11 1013.53 1012.93 1012.30 1011.66 1011.01 1010.37 1009.73 1009.09 1008.45 1007.80 1007.12 1006.40 1005.64 1004.83 1003.96 1003.05 1002.08 1001.08 1000.05 999.00 997.93 996.86 995.80 994.77 993.77 992.83 991.96
1019.76 1019.67 1019.49 1019.21 1018.85 1018.44 1017.99 1017.51 1017.02 1016.53 1016.05 1015.56 1015.07 1014.57 1014.04 1013.49 1012.91 1012.31 1011.69 1011.06 1010.44 1009.82 1009.20 1008.59 1007.97 1007.33 1006.66 1005.95 1005.18 1004.35 1003.46 1002.51 1001.51 1000.46 999.39 998.29 997.18 996.06 994.95 993.85 992.79 991.76 990.78
Thickness
5671 5670 5668 5666 5662 5660 5658 5655 5653 5652 5652 5651 5649 5649 5648 5647 5645 5644 5643 5642 5642 5642 5643 5643 5643 5643 5643 5645 5645 5646 5647 5647 5647 5648 5649 5649 5649 5649 5650 5652 5653 5653 5653
5666 5664 5662 5658 5654 5653 5651 5648 5647 5646 5645 5643 5642 5641 5640 5638 5637 5636 5634 5633 5632 5632 5632 5632 5632 5632 5633 5633 5633 5633 5634 5634 5635 5636 5637 5638 5638 5638 5639 5640 5641 5643 5644
5660 5657 5654 5650 5647 5646 5644 5642 5640 5640 5638 5635 5633 5632 5630 5628 5627 5626 5625 5623 5622 5620 5619 5619 5618 5619 5618 5619 5620 5621 5621 5621 5622 5623 5624 5624 5624 5625 5626 5626 5627 5629 5631
5653 5650 5645 5641 5639 5639 5638 5635 5632 5631 5627 5624 5623 5623 5620 5618 5617 5615 5614 5612 5610 5608 5606 5604 5603 5603 5603 5604 5604 5606 5607 5606 5606 5607 5608 5608 5609 5609 5610 5610 5612 5613 5615
5646 5643 5638 5634 5632 5631 5629 5626 5622 5619 5615 5612 5613 5614 5610 5608 5606 5606 5604 5601 5598 5595 5593 5590 5588 5588 5587 5588 5588 5588 5590 5590 5590 5591 5591 5591 5591 5592 5592 5593 5595 5596 5598
5638 5635 5630 5626 5624 5622 5618 5614 5611 5608 5604 5601 5602 5603 5601 5601 5598 5597 5594 5590 5586 5583 5580 5577 5574 5573 5572 5571 5570 5571 5572 5572 5574 5575 5574 5574 5574 5575 5575 5576 5577 5579 5581
5630 5627 5622 5618 5615 5611 5606 5603 5600 5596 5592 5589 5588 5589 5591 5592 5590 5588 5584 5579 5575 5571 5567 5563 5560 5558 5557 5555 5553 5553 5554 5554 5556 5557 5556 5557 5557 5557 5557 5558 5560 5562 5564
5622 5618 5614 5609 5605 5602 5597 5592 5587 5582 5578 5575 5572 5573 5571 5575 5577 5577 5571 5569 5563 5558 5552 5547 5544 5542 5541 5540 5539 5538 5537 5537 5539 5539 5538 5538 5538 5538 5538 5539 5540 5543 5545
5612 5608 5604 5599 5596 5593 5586 5579 5574 5569 5564 5561 5558 5556 5553 5551 5556 5563 5559 5553 5547 5541 5535 5532 5530 5528 5526 5526 5525 5524 5522 5522 5521 5520 5520 5519 5518 5517 5517 5518 5519 5521 5523
5601 5597 5594 5590 5586 5581 5574 5568 5561 5556 5552 5547 5545 5541 5537 5534 5532 5540 5546 5541 5536 5530 5524 5520 5517 5516 5514 5512 5510 5509 5507 5505 5502 5500 5498 5495 5494 5493 5493 5494 5495 5497 5499
5589 5586 5583 5579 5575 5569 5562 5556 5549 5544 5539 5535 5531 5526 5522 5518 5513 5509 5519 5523 5521 5516 5510 5507 5505 5503 5500 5497 5494 5492 5489 5486 5482 5477 5474 5470 5468 5467 5467 5467 5467 5468 5469
5578 5575 5572 5568 5563 5557 5551 5544 5538 5533 5528 5523 5517 5512 5508 5504 5499 5492 5493 5501 5504 5504 5499 5496 5492 5486 5482 5478 5474 5470 5466 5462 5457 5452 5448 5444 5442 5440 5438 5437 5436 5436 5437
5568 5563 5560 5556 5550 5545 5539 5534 5528 5522 5517 5511 5506 5500 5494 5488 5482 5476 5473 5478 5483 5488 5486 5481 5473 5466 5460 5454 5447 5442 5437 5431 5425 5420 5415 5411 5408 5406 5404 5402 5400 5400 5401
5558 5554 5549 5544 5539 5534 5529 5524 5518 5512 5507 5500 5495 5488 5481 5475 5467 5459 5453 5452 5460 5468 5464 5461 5455 5444 5433 5422 5414 5407 5400 5392 5386 5380 5375 5370 5367 5365 5363 5362 5362 5363 5364
5549 5543 5538 5533 5528 5523 5519 5513 5507 5502 5495 5489 5483 5476 5468 5461 5453 5444 5437 5429 5424 5433 5447 5443 5431 5421 5406 5394 5381 5371 5360 5351 5344 5338 5332 5328 5326 5325 5326 5328 5330 5332 5335
5539 5534 5528 5522 5516 5512 5507 5502 5496 5490 5484 5478 5471 5464 5456 5448 5440 5431 5423 5414 5405 5401 5410 5418 5408 5395 5379 5363 5347 5333 5320 5309 5300 5294 5291 5292 5295 5299 5304 5308 5311 5315 5319
5529 5524 5517 5511 5506 5501 5496 5490 5484 5478 5472 5465 5458 5451 5443 5435 5427 5418 5409 5400 5390 5381 5381 5392 5382 5371 5354 5336 5319 5302 5286 5275 5266 5262 5260 5263 5270 5276 5283 5290 5297 5302 5306
5519 5514 5507 5501 5495 5490 5484 5478 5472 5466 5459 5451 5444 5436 5428 5422 5414 5404 5394 5384 5373 5361 5351 5353 5355 5341 5326 5308 5293 5281 5268 5254 5244 5240 5240 5243 5249 5256 5264 5272 5280 5286 5290
5510 5504 5497 5490 5484 5478 5473 5467 5460 5452 5444 5435 5427 5420 5413 5406 5399 5389 5378 5367 5355 5343 5328 5316 5314 5308 5299 5285 5273 5264 5253 5242 5233 5229 5228 5230 5235 5241 5250 5258 5265 5270 5275
5500 5492 5485 5478 5472 5466 5460 5454 5447 5438 5429 5420 5413 5406 5399 5391 5382 5373 5363 5350 5336 5321 5307 5294 5287 5281 5274 5267 5257 5252 5250 5241 5233 5226 5226 5229 5232 5236 5242 5247 5254 5260 5263
5488 5480 5473 5466 5460 5454 5448 5442 5435 5427 5417 5408 5400 5393 5385 5376 5368 5356 5344 5330 5313 5299 5288 5281 5274 5265 5260 5255 5249 5245 5244 5243 5238 5229 5233 5235 5233 5237 5239 5242 5246 5251 5254
5475 5468 5461 5455 5448 5441 5436 5431 5424 5415 5405 5396 5389 5381 5371 5361 5349 5338 5323 5309 5292 5277 5268 5264 5259 5256 5253 5248 5244 5242 5239 5238 5243 5239 5237 5241 5237 5241 5242 5243 5245 5249 5251
5463 5456 5449 5442 5435 5429 5424 5418 5412 5404 5393 5384 5375 5366 5356 5343 5330 5316 5305 5293 5278 5264 5256 5252 5251 5249 5247 5245 5242 5241 5238 5236 5238 5239 5238 5246 5244 5245 5245 5245 5247 5250 5252
5452 5445 5438 5431 5424 5417 5412 5406 5400 5392 5380 5370 5359 5348 5336 5324 5309 5298 5290 5279 5267 5257 5251 5249 5246 5246 5245 5244 5241 5240 5240 5242 5243 5240 5239 5243 5247 5247 5248 5247 5249 5253 5257
5440 5433 5427 5420 5412 5405 5400 5395 5389 5378 5367 5356 5344 5330 5316 5305 5294 5283 5273 5265 5260 5255 5250 5248 5245 5243 5243 5242 5241 5240 5240 5241 5246 5248 5242 5240 5245 5248 5250 5251 5255 5259 5264
5429 5423 5416 5408 5401 5394 5388 5383 5375 5366 5356 5345 5330 5313 5297 5284 5274 5266 5259 5254 5251 5250 5250 5248 5244 5242 5242 5241 5240 5237 5234 5236 5242 5247 5247 5242 5243 5243 5253 5258 5260 5262 5267